| time (UTC) | temp F | wind direction | speed knots | gust knots | rain 1hr in | rain 24hr in | rain mn in | humidity % | barometer mb |
| 20260510203001 | 54 | 299 | 8.7 | 14.8 | 0.00 | 0.22 | 0.22 | 49 | 1012.7 |
| 20260510202501 | 54 | 271 | 6.1 | 13.0 | 0.00 | 0.22 | 0.22 | 46 | 1012.8 |
| 20260510202004 | 54 | 313 | 7.0 | 13.9 | 0.00 | 0.22 | 0.22 | 45 | 1012.7 |
| 20260510201603 | 54 | 311 | 7.0 | 13.9 | 0.00 | 0.22 | 0.22 | 47 | 1012.7 |
| 20260510201100 | 54 | 304 | 5.2 | 16.5 | 0.00 | 0.22 | 0.22 | 47 | 1012.7 |
| 20260510200602 | 54 | 294 | 7.8 | 15.6 | 0.00 | 0.22 | 0.22 | 45 | 1012.8 |
| 20260510200100 | 55 | 298 | 7.8 | 13.0 | 0.00 | 0.22 | 0.22 | 45 | 1012.8 |
| 20260510195600 | 55 | 292 | 3.5 | 13.9 | 0.00 | 0.22 | 0.22 | 46 | 1012.8 |
| 20260510195059 | 55 | 282 | 5.2 | 18.2 | 0.00 | 0.22 | 0.22 | 46 | 1012.8 |
| 20260510194610 | 54 | 273 | 10.4 | 18.2 | 0.00 | 0.22 | 0.22 | 48 | 1012.8 |
| 20260510194059 | 55 | 321 | 8.7 | 14.8 | 0.00 | 0.22 | 0.22 | 46 | 1012.9 |
| 20260510194001 | 55 | 333 | 9.6 | 14.8 | 0.00 | 0.22 | 0.22 | 47 | 1012.9 |
| 20260510193558 | 55 | 304 | 10.4 | 14.8 | 0.00 | 0.22 | 0.22 | 49 | 1012.9 |
| 20260510193104 | 55 | 317 | 7.0 | 14.8 | 0.00 | 0.22 | 0.22 | 51 | 1012.9 |
| 20260510192558 | 55 | 310 | 6.1 | 13.9 | 0.00 | 0.22 | 0.22 | 51 | 1012.8 |
| 20260510192058 | 55 | 300 | 7.8 | 15.6 | 0.00 | 0.22 | 0.22 | 49 | 1012.9 |
| 20260510191600 | 55 | 311 | 8.7 | 17.4 | 0.00 | 0.22 | 0.22 | 50 | 1012.8 |
| 20260510191057 | 55 | 302 | 12.2 | 17.4 | 0.00 | 0.22 | 0.22 | 45 | 1012.8 |
| 20260510190556 | 55 | 320 | 6.1 | 13.9 | 0.00 | 0.22 | 0.22 | 49 | 1012.8 |
| 20260510190107 | 55 | 309 | 7.8 | 17.4 | 0.00 | 0.22 | 0.22 | 50 | 1012.7 |
| 20260510185556 | 55 | 318 | 9.6 | 17.4 | 0.00 | 0.22 | 0.22 | 50 | 1012.7 |
| 20260510185056 | 55 | 303 | 8.7 | 13.0 | 0.00 | 0.22 | 0.22 | 50 | 1012.7 |
| 20260510184607 | 55 | 330 | 7.0 | 13.0 | 0.00 | 0.22 | 0.22 | 53 | 1012.8 |
| 20260510184057 | 55 | 302 | 10.4 | 13.9 | 0.00 | 0.22 | 0.22 | 50 | 1012.8 |
| 20260510183555 | 55 | 303 | 8.7 | 15.6 | 0.00 | 0.22 | 0.22 | 51 | 1012.6 |
| 20260510183109 | 56 | 340 | 9.6 | 15.6 | 0.00 | 0.22 | 0.22 | 52 | 1012.7 |
| 20260510182554 | 56 | 314 | 6.1 | 13.0 | 0.00 | 0.22 | 0.22 | 47 | 1012.6 |
| 20260510182053 | 56 | 281 | 5.2 | 13.0 | 0.00 | 0.22 | 0.22 | 48 | 1012.7 |
| 20260510181613 | 55 | 310 | 7.8 | 13.0 | 0.00 | 0.22 | 0.22 | 50 | 1012.6 |
| 20260510181052 | 55 | 311 | 7.0 | 13.0 | 0.00 | 0.22 | 0.22 | 50 | 1012.6 |
| 20260510180552 | 56 | 308 | 4.3 | 11.3 | 0.00 | 0.22 | 0.22 | 51 | 1012.6 |
| 20260510180055 | 55 | 307 | 5.2 | 12.2 | 0.00 | 0.22 | 0.22 | 47 | 1012.6 |
| 20260510175549 | 55 | 303 | 5.2 | 12.2 | 0.00 | 0.22 | 0.22 | 47 | 1012.6 |
| 20260510175049 | 55 | 325 | 5.2 | 13.0 | 0.00 | 0.22 | 0.22 | 46 | 1012.6 |
| 20260510174603 | 55 | 305 | 7.8 | 13.0 | 0.00 | 0.22 | 0.22 | 45 | 1012.6 |
| 20260510174049 | 55 | 298 | 4.3 | 13.9 | 0.00 | 0.22 | 0.22 | 49 | 1012.7 |
| 20260510173551 | 55 | 288 | 6.1 | 13.9 | 0.00 | 0.22 | 0.22 | 46 | 1012.7 |
| 20260510173054 | 55 | 322 | 6.1 | 13.0 | 0.00 | 0.22 | 0.22 | 50 | 1012.7 |
| 20260510172549 | 55 | 284 | 7.0 | 13.0 | 0.00 | 0.22 | 0.22 | 45 | 1012.7 |
| 20260510172049 | 55 | 280 | 8.7 | 13.0 | 0.00 | 0.22 | 0.22 | 47 | 1012.6 |
| 20260510171614 | 54 | 304 | 7.0 | 14.8 | 0.00 | 0.22 | 0.22 | 47 | 1012.7 |
| 20260510171047 | 54 | 288 | 8.7 | 14.8 | 0.00 | 0.22 | 0.22 | 47 | 1012.6 |
| 20260510170550 | 53 | 313 | 7.8 | 14.8 | 0.00 | 0.22 | 0.22 | 42 | 1012.5 |
| 20260510170049 | 53 | 316 | 9.6 | 14.8 | 0.00 | 0.22 | 0.22 | 47 | 1012.5 |
| 20260510165544 | 53 | 277 | 7.0 | 13.9 | 0.00 | 0.22 | 0.22 | 47 | 1012.6 |
| 20260510165044 | 54 | 294 | 7.0 | 15.6 | 0.00 | 0.22 | 0.22 | 51 | 1012.5 |
| 20260510164552 | 54 | 315 | 9.6 | 15.6 | 0.00 | 0.22 | 0.22 | 50 | 1012.5 |
| 20260510164045 | 54 | 304 | 7.0 | 13.9 | 0.00 | 0.22 | 0.22 | 50 | 1012.4 |
| 20260510163543 | 54 | 289 | 6.1 | 13.9 | 0.00 | 0.22 | 0.22 | 51 | 1012.4 |
| 20260510163051 | 54 | 295 | 3.5 | 12.2 | 0.00 | 0.22 | 0.22 | 50 | 1012.6 |
| 20260510162541 | 53 | 284 | 4.3 | 12.2 | 0.00 | 0.22 | 0.22 | 48 | 1012.6 |
| 20260510162039 | 53 | 293 | 4.3 | 9.6 | 0.00 | 0.22 | 0.22 | 54 | 1012.6 |
| 20260510161537 | 52 | 304 | 6.1 | 10.4 | 0.00 | 0.22 | 0.22 | 58 | 1012.6 |
| 20260510161037 | 52 | 300 | 5.2 | 11.3 | 0.00 | 0.22 | 0.22 | 58 | 1012.6 |
| 20260510160536 | 52 | 279 | 6.1 | 12.2 | 0.00 | 0.22 | 0.22 | 55 | 1012.6 |
| 20260510160039 | 51 | 297 | 6.1 | 12.2 | 0.00 | 0.22 | 0.22 | 57 | 1012.7 |
| 20260510155532 | 51 | 326 | 4.3 | 7.0 | 0.00 | 0.23 | 0.22 | 58 | 1012.7 |
| 20260510155032 | 51 | 318 | 3.5 | 7.0 | 0.00 | 0.23 | 0.22 | 58 | 1012.8 |
| 20260510154534 | 50 | 305 | 1.7 | 8.7 | 0.00 | 0.23 | 0.22 | 63 | 1012.8 |
| 20260510154033 | 50 | 321 | 3.5 | 9.6 | 0.00 | 0.23 | 0.22 | 60 | 1012.8 |
| 20260510153530 | 50 | 325 | 5.2 | 9.6 | 0.00 | 0.23 | 0.22 | 61 | 1012.7 |
| 20260510153038 | 50 | 314 | 1.7 | 6.1 | 0.00 | 0.23 | 0.22 | 69 | 1012.6 |
| 20260510152528 | 50 | 202 | 2.6 | 8.7 | 0.00 | 0.23 | 0.22 | 68 | 1012.7 |
| 20260510152028 | 50 | 309 | 2.6 | 8.7 | 0.00 | 0.23 | 0.22 | 73 | 1012.7 |
| 20260510151528 | 49 | 311 | 5.2 | 7.8 | 0.00 | 0.23 | 0.22 | 73 | 1012.5 |
| 20260510151025 | 48 | 322 | 1.7 | 6.1 | 0.00 | 0.23 | 0.22 | 76 | 1012.4 |
| 20260510150523 | 48 | 286 | 2.6 | 6.1 | 0.00 | 0.23 | 0.22 | 76 | 1012.4 |
| 20260510150022 | 48 | 278 | 1.7 | 8.7 | 0.00 | 0.23 | 0.22 | 76 | 1012.3 |
| 20260510145522 | 47 | 302 | 5.2 | 8.7 | 0.00 | 0.27 | 0.22 | 75 | 1012.4 |
| 20260510145021 | 47 | 306 | 2.6 | 7.0 | 0.00 | 0.27 | 0.22 | 75 | 1012.3 |
| 20260510144523 | 47 | 313 | 2.6 | 8.7 | 0.00 | 0.27 | 0.22 | 77 | 1012.1 |
| 20260510144019 | 47 | 341 | 3.5 | 8.7 | 0.00 | 0.27 | 0.22 | 79 | 1011.9 |
| 20260510143520 | 47 | 330 | 3.5 | 8.7 | 0.00 | 0.27 | 0.22 | 80 | 1011.8 |
| 20260510143016 | 46 | 307 | 2.6 | 7.0 | 0.01 | 0.27 | 0.22 | 81 | 1011.8 |
| 20260510142515 | 46 | 319 | 5.2 | 7.0 | 0.01 | 0.27 | 0.22 | 81 | 1011.8 |
| 20260510142015 | 46 | 304 | 2.6 | 4.3 | 0.01 | 0.27 | 0.22 | 82 | 1011.8 |
| 20260510141514 | 46 | 323 | 2.6 | 4.3 | 0.02 | 0.27 | 0.22 | 82 | 1011.7 |
| 20260510141013 | 46 | 317 | 2.6 | 5.2 | 0.04 | 0.27 | 0.22 | 84 | 1011.7 |
| 20260510140512 | 45 | 314 | 2.6 | 7.8 | 0.05 | 0.27 | 0.22 | 83 | 1011.8 |
| 20260510140011 | 45 | 318 | 4.3 | 7.8 | 0.05 | 0.27 | 0.22 | 85 | 1011.7 |
| 20260510135514 | 45 | 290 | 2.6 | 4.3 | 0.05 | 0.30 | 0.22 | 85 | 1011.7 |
| 20260510135012 | 45 | 304 | 2.6 | 7.8 | 0.05 | 0.30 | 0.22 | 85 | 1011.6 |
| 20260510134510 | 45 | 297 | 3.5 | 7.8 | 0.06 | 0.30 | 0.22 | 85 | 1011.6 |
| 20260510134009 | 45 | 304 | 4.3 | 7.8 | 0.06 | 0.30 | 0.22 | 86 | 1011.6 |
| 20260510133509 | 45 | 309 | 3.5 | 7.8 | 0.06 | 0.30 | 0.22 | 88 | 1011.6 |
| 20260510133008 | 44 | 275 | 1.7 | 6.1 | 0.05 | 0.28 | 0.21 | 87 | 1011.7 |
| 20260510132508 | 44 | 303 | 1.7 | 7.0 | 0.05 | 0.28 | 0.21 | 87 | 1011.7 |
| 20260510132008 | 44 | 293 | 2.6 | 10.4 | 0.05 | 0.28 | 0.21 | 86 | 1011.7 |
| 20260510131507 | 44 | 298 | 5.2 | 10.4 | 0.06 | 0.28 | 0.20 | 87 | 1011.5 |
| 20260510131007 | 45 | 280 | 4.3 | 7.8 | 0.05 | 0.25 | 0.17 | 87 | 1011.8 |
| 20260510130505 | 45 | 289 | 3.5 | 8.7 | 0.08 | 0.25 | 0.17 | 87 | 1011.6 |
| 20260510130005 | 45 | 279 | 3.5 | 8.7 | 0.08 | 0.25 | 0.17 | 88 | 1011.3 |
| 20260510125504 | 45 | 309 | 2.6 | 7.8 | 0.08 | 0.27 | 0.17 | 89 | 1011.0 |
| 20260510125003 | 45 | 275 | 1.7 | 4.3 | 0.07 | 0.26 | 0.16 | 89 | 1011.2 |
| 20260510124503 | 45 | 308 | 2.6 | 5.2 | 0.07 | 0.26 | 0.16 | 88 | 1010.9 |
| 20260510124002 | 45 | 290 | 0.9 | 7.8 | 0.07 | 0.26 | 0.16 | 89 | 1010.6 |
| 20260510123503 | 45 | 293 | 3.5 | 10.4 | 0.07 | 0.26 | 0.16 | 88 | 1010.5 |
| 20260510123001 | 45 | 286 | 6.1 | 10.4 | 0.07 | 0.26 | 0.16 | 88 | 1010.7 |
| 20260510122500 | 45 | 289 | 6.1 | 14.8 | 0.07 | 0.26 | 0.16 | 87 | 1010.6 |
| 20260510122059 | 46 | 316 | 6.1 | 14.8 | 0.07 | 0.26 | 0.16 | 87 | 1010.6 |
| 20260510121558 | 48 | 319 | 8.7 | 13.9 | 0.05 | 0.24 | 0.14 | 89 | 1010.6 |
| 20260510121059 | 48 | 318 | 0.9 | 3.5 | 0.03 | 0.22 | 0.12 | 90 | 1010.4 |
| 20260510120555 | 48 | 205 | 0.0 | 1.7 | 0.00 | 0.19 | 0.09 | 90 | 1010.1 |
| 20260510120054 | 48 | 204 | 0.0 | 1.7 | 0.00 | 0.19 | 0.09 | 90 | 1009.7 |
| 20260510115553 | 48 | 194 | 0.0 | 2.6 | 0.00 | 0.20 | 0.09 | 90 | 1009.8 |
| 20260510115052 | 48 | 194 | 0.0 | 2.6 | 0.00 | 0.20 | 0.09 | 90 | 1009.6 |
| 20260510114606 | 48 | 200 | 0.0 | 0.0 | 0.00 | 0.20 | 0.09 | 90 | 1009.5 |
| 20260510114052 | 48 | 193 | 0.0 | 2.6 | 0.00 | 0.20 | 0.09 | 90 | 1009.4 |
| 20260510113551 | 48 | 193 | 0.0 | 2.6 | 0.00 | 0.20 | 0.09 | 90 | 1009.4 |
| 20260510113057 | 48 | 204 | 0.9 | 2.6 | 0.00 | 0.20 | 0.09 | 90 | 1009.3 |
| 20260510112551 | 48 | 220 | 0.0 | 2.6 | 0.00 | 0.20 | 0.09 | 90 | 1009.3 |
| 20260510112053 | 48 | 221 | 0.0 | 2.6 | 0.00 | 0.20 | 0.09 | 90 | 1009.2 |
| 20260510111551 | 48 | 221 | 0.9 | 3.5 | 0.00 | 0.20 | 0.09 | 90 | 1009.3 |
| 20260510111049 | 48 | 223 | 0.9 | 3.5 | 0.00 | 0.20 | 0.09 | 90 | 1009.2 |
| 20260510110548 | 48 | 194 | 1.7 | 5.2 | 0.00 | 0.20 | 0.09 | 90 | 1009.1 |
| 20260510110054 | 48 | 189 | 2.6 | 5.2 | 0.00 | 0.20 | 0.09 | 90 | 1008.8 |
| 20260510105547 | 48 | 184 | 0.0 | 4.3 | 0.00 | 0.20 | 0.09 | 90 | 1008.5 |
| 20260510105047 | 48 | 229 | 0.9 | 4.3 | 0.00 | 0.20 | 0.09 | 90 | 1008.7 |
| 20260510104549 | 48 | 205 | 0.9 | 4.3 | 0.00 | 0.20 | 0.09 | 90 | 1008.7 |
| 20260510104047 | 48 | 185 | 0.9 | 4.3 | 0.00 | 0.20 | 0.09 | 90 | 1008.5 |
| 20260510103547 | 48 | 186 | 1.7 | 4.3 | 0.00 | 0.20 | 0.09 | 90 | 1008.4 |
| 20260510103052 | 48 | 227 | 0.0 | 2.6 | 0.00 | 0.20 | 0.09 | 90 | 1008.5 |
| 20260510102547 | 48 | 227 | 0.0 | 3.5 | 0.00 | 0.20 | 0.09 | 90 | 1008.4 |
| 20260510102047 | 48 | 210 | 0.9 | 4.3 | 0.00 | 0.20 | 0.09 | 90 | 1008.3 |
| 20260510101559 | 48 | 210 | 0.9 | 6.1 | 0.00 | 0.20 | 0.09 | 90 | 1008.4 |
| 20260510101045 | 48 | 207 | 0.9 | 6.1 | 0.00 | 0.20 | 0.09 | 90 | 1008.4 |
| 20260510100545 | 48 | 196 | 2.6 | 8.7 | 0.01 | 0.20 | 0.09 | 90 | 1008.2 |
| 20260510100051 | 48 | 195 | 4.3 | 8.7 | 0.01 | 0.20 | 0.09 | 90 | 1008.1 |
| 20260510095544 | 48 | 157 | 2.6 | 6.1 | 0.01 | 0.20 | 0.09 | 91 | 1008.1 |
| 20260510095043 | 48 | 194 | 1.7 | 4.3 | 0.01 | 0.20 | 0.09 | 91 | 1008.1 |
| 20260510094550 | 47 | 210 | 1.7 | 5.2 | 0.01 | 0.20 | 0.09 | 91 | 1008.1 |
| 20260510094047 | 47 | 205 | 2.6 | 5.2 | 0.01 | 0.20 | 0.09 | 91 | 1008.1 |
| 20260510093543 | 47 | 198 | 0.0 | 1.7 | 0.01 | 0.20 | 0.09 | 91 | 1008.0 |
| 20260510093043 | 47 | 198 | 0.0 | 3.5 | 0.01 | 0.20 | 0.09 | 91 | 1007.9 |
| 20260510092543 | 47 | 195 | 0.9 | 3.5 | 0.01 | 0.20 | 0.09 | 91 | 1007.8 |
| 20260510092044 | 47 | 205 | 0.9 | 2.6 | 0.01 | 0.20 | 0.09 | 91 | 1007.7 |
| 20260510091542 | 47 | 199 | 0.9 | 3.5 | 0.01 | 0.20 | 0.09 | 91 | 1007.6 |
| 20260510091042 | 47 | 198 | 0.9 | 4.3 | 0.01 | 0.20 | 0.09 | 91 | 1007.7 |
| 20260510090541 | 47 | 188 | 1.7 | 4.3 | 0.00 | 0.19 | 0.08 | 91 | 1007.5 |
| 20260510090041 | 47 | 196 | 1.7 | 4.3 | 0.00 | 0.19 | 0.08 | 90 | 1007.5 |
| 20260510085539 | 47 | 204 | 0.9 | 3.5 | 0.00 | 0.19 | 0.08 | 90 | 1007.5 |
| 20260510085040 | 47 | 234 | 1.7 | 3.5 | 0.00 | 0.19 | 0.08 | 90 | 1007.4 |
| 20260510084539 | 47 | 223 | 0.0 | 2.6 | 0.00 | 0.19 | 0.08 | 90 | 1007.4 |
| 20260510084039 | 47 | 223 | 0.9 | 3.5 | 0.00 | 0.19 | 0.08 | 90 | 1007.5 |
| 20260510083538 | 47 | 223 | 0.9 | 3.5 | 0.00 | 0.19 | 0.08 | 90 | 1007.3 |
| 20260510083039 | 47 | 244 | 0.9 | 3.5 | 0.00 | 0.19 | 0.08 | 90 | 1007.5 |
| 20260510082537 | 47 | 198 | 1.7 | 4.3 | 0.00 | 0.19 | 0.08 | 90 | 1007.6 |
| 20260510082037 | 47 | 207 | 2.6 | 5.2 | 0.00 | 0.19 | 0.08 | 90 | 1007.5 |
| 20260510081541 | 47 | 199 | 2.6 | 5.2 | 0.00 | 0.19 | 0.08 | 90 | 1007.4 |
| 20260510081036 | 47 | 208 | 2.6 | 3.5 | 0.00 | 0.19 | 0.08 | 89 | 1007.5 |
| 20260510080535 | 47 | 217 | 0.9 | 2.6 | 0.00 | 0.19 | 0.08 | 89 | 1007.5 |
| 20260510080050 | 47 | 218 | 0.0 | 4.3 | 0.00 | 0.19 | 0.08 | 89 | 1007.5 |
| 20260510075533 | 48 | 215 | 0.0 | 4.3 | 0.00 | 0.19 | 0.08 | 89 | 1007.5 |
| 20260510075033 | 48 | 221 | 1.7 | 5.2 | 0.00 | 0.19 | 0.08 | 89 | 1007.3 |
| 20260510074532 | 48 | 273 | 1.7 | 6.1 | 0.00 | 0.19 | 0.08 | 89 | 1007.4 |
| 20260510074032 | 48 | 202 | 2.6 | 6.1 | 0.00 | 0.19 | 0.08 | 89 | 1007.3 |
| 20260510073531 | 48 | 217 | 0.9 | 5.2 | 0.00 | 0.19 | 0.08 | 89 | 1007.2 |
| 20260510073040 | 48 | 190 | 2.6 | 7.8 | 0.00 | 0.19 | 0.08 | 89 | 1007.2 |
| 20260510072530 | 48 | 192 | 4.3 | 7.8 | 0.00 | 0.19 | 0.08 | 89 | 1007.2 |
| 20260510072030 | 48 | 201 | 2.6 | 7.0 | 0.00 | 0.19 | 0.08 | 88 | 1007.3 |
| 20260510071529 | 49 | 198 | 2.6 | 6.1 | 0.00 | 0.19 | 0.08 | 88 | 1007.4 |
| 20260510071029 | 49 | 202 | 1.7 | 5.2 | 0.00 | 0.19 | 0.08 | 88 | 1007.3 |
| 20260510070528 | 49 | 187 | 1.7 | 5.2 | 0.00 | 0.19 | 0.08 | 88 | 1007.2 |
| 20260510070040 | 49 | 210 | 0.9 | 3.5 | 0.00 | 0.19 | 0.08 | 88 | 1007.3 |
| 20260510065528 | 49 | 206 | 0.9 | 3.5 | 0.00 | 0.19 | 0.08 | 88 | 1007.4 |
| 20260510065029 | 49 | 219 | 1.7 | 6.1 | 0.00 | 0.19 | 0.08 | 88 | 1007.4 |
| 20260510064527 | 49 | 234 | 2.6 | 8.7 | 0.00 | 0.19 | 0.08 | 88 | 1007.5 |
| 20260510064026 | 49 | 204 | 3.5 | 8.7 | 0.00 | 0.19 | 0.08 | 88 | 1007.5 |
| 20260510063526 | 49 | 222 | 2.6 | 8.7 | 0.00 | 0.19 | 0.08 | 88 | 1007.5 |
| 20260510063033 | 49 | 155 | 2.6 | 7.0 | 0.01 | 0.19 | 0.08 | 88 | 1007.3 |
| 20260510062525 | 49 | 190 | 1.7 | 7.8 | 0.02 | 0.19 | 0.08 | 88 | 1007.5 |
| 20260510062024 | 49 | 179 | 2.6 | 7.0 | 0.02 | 0.19 | 0.08 | 88 | 1007.5 |
| 20260510061523 | 49 | 194 | 1.7 | 5.2 | 0.03 | 0.19 | 0.08 | 87 | 1007.5 |
| 20260510061026 | 49 | 208 | 0.9 | 7.0 | 0.04 | 0.19 | 0.08 | 87 | 1007.8 |
| 20260510060524 | 49 | 206 | 3.5 | 7.0 | 0.05 | 0.19 | 0.08 | 87 | 1007.8 |
| 20260510060035 | 49 | 234 | 0.9 | 7.8 | 0.05 | 0.19 | 0.08 | 87 | 1007.7 |
| 20260510055530 | 49 | 207 | 4.3 | 12.2 | 0.05 | 0.19 | 0.08 | 87 | 1007.7 |
| 20260510055022 | 49 | 178 | 5.2 | 12.2 | 0.05 | 0.19 | 0.08 | 87 | 1007.6 |
| 20260510054523 | 49 | 203 | 3.5 | 9.6 | 0.05 | 0.19 | 0.08 | 88 | 1007.7 |
| 20260510054021 | 49 | 142 | 6.1 | 9.6 | 0.06 | 0.19 | 0.08 | 88 | 1007.6 |
| 20260510053520 | 49 | 136 | 4.3 | 7.8 | 0.07 | 0.19 | 0.08 | 88 | 1007.8 |
| 20260510053019 | 49 | 193 | 3.5 | 7.8 | 0.07 | 0.18 | 0.07 | 88 | 1008.3 |
| 20260510052519 | 49 | 192 | 2.6 | 7.8 | 0.06 | 0.17 | 0.06 | 88 | 1008.4 |
| 20260510052018 | 49 | 182 | 0.9 | 3.5 | 0.05 | 0.16 | 0.05 | 89 | 1008.5 |
| 20260510051517 | 49 | 206 | 0.9 | 3.5 | 0.05 | 0.16 | 0.05 | 88 | 1008.8 |
| 20260510051016 | 50 | 251 | 0.0 | 1.7 | 0.04 | 0.15 | 0.04 | 88 | 1008.9 |
| 20260510050516 | 50 | 251 | 0.0 | 2.6 | 0.03 | 0.14 | 0.03 | 88 | 1008.8 |
| 20260510050018 | 50 | 253 | 0.0 | 1.7 | 0.03 | 0.14 | 0.03 | 88 | 1008.7 |
| 20260510045518 | 50 | 254 | 0.0 | 2.6 | 0.03 | 0.14 | 0.03 | 88 | 1008.6 |
| 20260510045013 | 50 | 255 | 0.9 | 2.6 | 0.03 | 0.14 | 0.03 | 87 | 1008.6 |
| 20260510044513 | 50 | 273 | 0.0 | 4.3 | 0.03 | 0.14 | 0.03 | 87 | 1008.6 |
| 20260510044018 | 50 | 277 | 0.9 | 10.4 | 0.02 | 0.13 | 0.02 | 87 | 1008.5 |
| 20260510043516 | 50 | 286 | 1.7 | 10.4 | 0.01 | 0.12 | 0.01 | 86 | 1008.5 |
| 20260510043010 | 50 | 284 | 5.2 | 9.6 | 0.00 | 0.11 | 0.00 | 86 | 1008.5 |
| 20260510042512 | 50 | 313 | 1.7 | 4.3 | 0.00 | 0.11 | 0.00 | 86 | 1008.4 |
| 20260510042008 | 50 | 274 | 1.7 | 5.2 | 0.00 | 0.11 | 0.00 | 86 | 1008.1 |
| 20260510041508 | 50 | 214 | 0.9 | 5.2 | 0.00 | 0.11 | 0.00 | 86 | 1008.0 |
| 20260510041007 | 50 | 241 | 0.9 | 4.3 | 0.00 | 0.11 | 0.00 | 86 | 1007.9 |
| 20260510040505 | 50 | 264 | 0.9 | 5.2 | 0.00 | 0.11 | 0.00 | 86 | 1007.8 |
| 20260510040010 | 50 | 250 | 0.9 | 7.0 | 0.00 | 0.11 | 0.00 | 86 | 1007.7 |
| 20260510035502 | 50 | 203 | 2.6 | 9.6 | 0.00 | 0.11 | 0.11 | 86 | 1007.7 |
| 20260510035003 | 50 | 260 | 3.5 | 9.6 | 0.00 | 0.11 | 0.11 | 86 | 1007.4 |
| 20260510034502 | 50 | 193 | 4.3 | 10.4 | 0.00 | 0.11 | 0.11 | 85 | 1007.4 |
| 20260510034003 | 50 | 183 | 3.5 | 10.4 | 0.00 | 0.11 | 0.11 | 85 | 1007.4 |
| 20260510033501 | 51 | 184 | 2.6 | 8.7 | 0.00 | 0.11 | 0.11 | 85 | 1007.3 |
| 20260510033002 | 51 | 196 | 2.6 | 7.8 | 0.00 | 0.11 | 0.11 | 85 | 1007.3 |
| 20260510032502 | 51 | 173 | 3.5 | 7.8 | 0.00 | 0.11 | 0.11 | 84 | 1007.2 |
| 20260510032003 | 51 | 191 | 2.6 | 8.7 | 0.00 | 0.11 | 0.11 | 84 | 1007.4 |
| 20260510031501 | 51 | 170 | 2.6 | 7.8 | 0.00 | 0.11 | 0.11 | 84 | 1007.3 |
| 20260510031001 | 51 | 171 | 1.7 | 6.1 | 0.00 | 0.11 | 0.11 | 84 | 1007.5 |
| 20260510030500 | 51 | 206 | 0.0 | 10.4 | 0.00 | 0.11 | 0.11 | 84 | 1007.5 |
| 20260510025600 | 51 | 212 | 1.7 | 6.1 | 0.00 | 0.11 | 0.11 | 84 | 1007.6 |
| 20260510025102 | 51 | 199 | 3.5 | 6.1 | 0.00 | 0.11 | 0.11 | 84 | 1007.5 |
| 20260510024602 | 51 | 155 | 2.6 | 8.7 | 0.00 | 0.11 | 0.11 | 84 | 1007.2 |
| 20260510024100 | 51 | 221 | 5.2 | 8.7 | 0.00 | 0.11 | 0.11 | 84 | 1007.1 |
| 20260510023559 | 51 | 156 | 3.5 | 7.8 | 0.00 | 0.11 | 0.11 | 84 | 1007.1 |
| 20260510023058 | 51 | 166 | 4.3 | 10.4 | 0.00 | 0.11 | 0.11 | 84 | 1007.1 |
| 20260510022559 | 51 | 167 | 6.1 | 10.4 | 0.00 | 0.11 | 0.11 | 84 | 1007.1 |
| 20260510022100 | 51 | 142 | 5.2 | 10.4 | 0.00 | 0.11 | 0.11 | 85 | 1007.0 |
| 20260510021646 | 51 | 145 | 2.6 | 7.0 | 0.00 | 0.11 | 0.11 | 85 | 1007.1 |
| 20260510021058 | 51 | 184 | 3.5 | 7.8 | 0.00 | 0.11 | 0.11 | 85 | 1007.1 |
| 20260510020557 | 51 | 166 | 3.5 | 7.0 | 0.00 | 0.11 | 0.11 | 85 | 1007.0 |
| 20260510020100 | 51 | 142 | 3.5 | 7.8 | 0.00 | 0.11 | 0.11 | 85 | 1007.1 |
| 20260510015557 | 51 | 150 | 4.3 | 7.8 | 0.00 | 0.11 | 0.11 | 85 | 1007.2 |
| 20260510015058 | 50 | 148 | 2.6 | 6.1 | 0.00 | 0.11 | 0.11 | 86 | 1007.5 |
| 20260510014600 | 50 | 150 | 1.7 | 6.1 | 0.00 | 0.11 | 0.11 | 86 | 1007.4 |
| 20260510014056 | 50 | 142 | 3.5 | 6.1 | 0.00 | 0.11 | 0.11 | 86 | 1007.3 |
| 20260510013556 | 50 | 157 | 1.7 | 7.8 | 0.00 | 0.11 | 0.11 | 86 | 1007.3 |
| 20260510013102 | 50 | 142 | 3.5 | 7.8 | 0.00 | 0.11 | 0.11 | 86 | 1007.1 |
| 20260510012556 | 50 | 154 | 2.6 | 5.2 | 0.00 | 0.11 | 0.11 | 86 | 1007.0 |
| 20260510012055 | 50 | 133 | 2.6 | 4.3 | 0.00 | 0.11 | 0.11 | 85 | 1006.9 |
| 20260510011555 | 50 | 150 | 2.6 | 6.1 | 0.00 | 0.11 | 0.11 | 85 | 1006.9 |
| 20260510011054 | 51 | 140 | 2.6 | 6.1 | 0.00 | 0.11 | 0.11 | 85 | 1007.0 |
| 20260510010554 | 51 | 147 | 2.6 | 6.1 | 0.00 | 0.11 | 0.11 | 85 | 1007.0 |
| 20260510010059 | 51 | 138 | 2.6 | 6.1 | 0.00 | 0.11 | 0.11 | 85 | 1007.1 |
| 20260510005554 | 51 | 169 | 1.7 | 7.0 | 0.00 | 0.11 | 0.11 | 85 | 1007.1 |
| 20260510005054 | 50 | 169 | 3.5 | 10.4 | 0.00 | 0.11 | 0.11 | 85 | 1006.9 |
| 20260510004554 | 50 | 132 | 3.5 | 10.4 | 0.00 | 0.11 | 0.11 | 85 | 1006.9 |
| 20260510004054 | 50 | 130 | 3.5 | 7.8 | 0.00 | 0.11 | 0.11 | 85 | 1006.7 |
| 20260510003554 | 50 | 126 | 2.6 | 7.8 | 0.00 | 0.11 | 0.11 | 85 | 1006.7 |
| 20260510003054 | 50 | 146 | 1.7 | 6.1 | 0.00 | 0.11 | 0.11 | 85 | 1006.7 |
| 20260510002557 | 50 | 146 | 2.6 | 6.1 | 0.00 | 0.11 | 0.11 | 85 | 1006.6 |
| 20260510002053 | 51 | 136 | 2.6 | 7.0 | 0.00 | 0.11 | 0.11 | 85 | 1006.6 |
| 20260510001553 | 51 | 156 | 3.5 | 7.0 | 0.00 | 0.11 | 0.11 | 85 | 1006.7 |
| 20260510001053 | 51 | 160 | 2.6 | 10.4 | 0.00 | 0.11 | 0.11 | 85 | 1006.5 |
| 20260510000556 | 51 | 188 | 4.3 | 10.4 | 0.00 | 0.11 | 0.11 | 85 | 1006.3 |
| 20260510000053 | 51 | 155 | 5.2 | 8.7 | 0.00 | 0.11 | 0.11 | 85 | 1006.4 |
| 20260509235552 | 51 | 134 | 3.5 | 7.0 | 0.00 | 0.11 | 0.11 | 85 | 1006.6 |
| 20260509235053 | 51 | 142 | 3.5 | 6.1 | 0.00 | 0.11 | 0.11 | 85 | 1006.7 |
| 20260509234552 | 51 | 193 | 2.6 | 6.1 | 0.00 | 0.11 | 0.11 | 85 | 1006.8 |
| 20260509234051 | 51 | 183 | 2.6 | 8.7 | 0.00 | 0.11 | 0.11 | 85 | 1006.7 |
| 20260509233551 | 51 | 178 | 4.3 | 8.7 | 0.00 | 0.11 | 0.11 | 84 | 1006.6 |
| 20260509233051 | 51 | 169 | 2.6 | 5.2 | 0.00 | 0.11 | 0.11 | 85 | 1006.6 |
| 20260509232551 | 51 | 158 | 1.7 | 7.0 | 0.00 | 0.11 | 0.11 | 85 | 1006.6 |
| 20260509232051 | 51 | 202 | 3.5 | 8.7 | 0.00 | 0.11 | 0.11 | 84 | 1006.7 |
| 20260509231553 | 51 | 180 | 4.3 | 8.7 | 0.00 | 0.11 | 0.11 | 84 | 1006.6 |
| 20260509231050 | 51 | 202 | 3.5 | 7.0 | 0.00 | 0.11 | 0.11 | 84 | 1006.7 |
| 20260509230552 | 51 | 206 | 2.6 | 7.0 | 0.00 | 0.11 | 0.11 | 84 | 1006.6 |
| 20260509230053 | 51 | 207 | 1.7 | 8.7 | 0.00 | 0.11 | 0.11 | 84 | 1006.6 |
| 20260509225550 | 51 | 179 | 3.5 | 9.6 | 0.00 | 0.11 | 0.11 | 84 | 1006.5 |
| 20260509225049 | 51 | 205 | 1.7 | 9.6 | 0.00 | 0.11 | 0.11 | 84 | 1006.5 |
| 20260509224550 | 51 | 188 | 5.2 | 8.7 | 0.00 | 0.11 | 0.11 | 84 | 1006.4 |
| 20260509224050 | 51 | 174 | 1.7 | 8.7 | 0.00 | 0.11 | 0.11 | 84 | 1006.4 |
| 20260509223550 | 51 | 190 | 3.5 | 8.7 | 0.00 | 0.11 | 0.11 | 84 | 1006.3 |
| 20260509223053 | 51 | 225 | 4.3 | 9.6 | 0.00 | 0.11 | 0.11 | 84 | 1006.3 |
| 20260509222550 | 51 | 211 | 4.3 | 9.6 | 0.00 | 0.11 | 0.11 | 84 | 1006.3 |
| 20260509222049 | 51 | 209 | 1.7 | 12.2 | 0.00 | 0.11 | 0.11 | 84 | 1006.5 |
| 20260509221549 | 51 | 182 | 4.3 | 12.2 | 0.00 | 0.11 | 0.11 | 84 | 1006.4 |
| 20260509221048 | 51 | 189 | 3.5 | 13.9 | 0.00 | 0.11 | 0.11 | 84 | 1006.4 |
| 20260509220547 | 51 | 186 | 6.1 | 13.9 | 0.00 | 0.11 | 0.11 | 84 | 1006.4 |
| 20260509220050 | 51 | 194 | 3.5 | 9.6 | 0.00 | 0.11 | 0.11 | 84 | 1006.4 |
| 20260509215546 | 51 | 232 | 3.5 | 8.7 | 0.00 | 0.11 | 0.11 | 84 | 1006.5 |
| 20260509215047 | 51 | 182 | 6.1 | 12.2 | 0.00 | 0.11 | 0.11 | 84 | 1006.4 |
| 20260509214547 | 51 | 183 | 4.3 | 9.6 | 0.00 | 0.11 | 0.11 | 84 | 1006.5 |
| 20260509214046 | 51 | 188 | 3.5 | 10.4 | 0.00 | 0.11 | 0.11 | 84 | 1006.5 |
| 20260509213546 | 51 | 180 | 2.6 | 10.4 | 0.00 | 0.11 | 0.11 | 84 | 1006.5 |
| 20260509213102 | 51 | 222 | 5.2 | 8.7 | 0.00 | 0.11 | 0.11 | 84 | 1006.4 |
| 20260509212544 | 51 | 191 | 3.5 | 8.7 | 0.00 | 0.11 | 0.11 | 84 | 1006.5 |
| 20260509212042 | 51 | 150 | 3.5 | 8.7 | 0.00 | 0.11 | 0.11 | 85 | 1006.6 |
| 20260509211542 | 51 | 213 | 2.6 | 8.7 | 0.00 | 0.11 | 0.11 | 85 | 1006.6 |
| 20260509211042 | 51 | 194 | 2.6 | 11.3 | 0.00 | 0.11 | 0.11 | 85 | 1006.6 |
| 20260509210543 | 51 | 209 | 5.2 | 11.3 | 0.00 | 0.11 | 0.11 | 85 | 1006.7 |
| 20260509210046 | 51 | 214 | 3.5 | 9.6 | 0.00 | 0.11 | 0.11 | 85 | 1006.8 |
| 20260509205544 | 51 | 142 | 4.3 | 9.6 | 0.00 | 0.11 | 0.11 | 85 | 1006.8 |
| 20260509205040 | 51 | 205 | 3.5 | 7.0 | 0.00 | 0.11 | 0.11 | 86 | 1006.8 |
| 20260509204540 | 51 | 224 | 1.7 | 11.3 | 0.00 | 0.11 | 0.11 | 86 | 1007.0 |
| 20260509204038 | 51 | 175 | 5.2 | 11.3 | 0.00 | 0.11 | 0.11 | 86 | 1007.0 |
| 20260509203540 | 51 | 196 | 7.0 | 11.3 | 0.00 | 0.11 | 0.11 | 86 | 1007.0 |